Powrót do katalogu

THORAD DELTA 1 DEB

AktywnySSO
NORAD 8143·DEBRIS·🇺🇸 United States

Wystrzelony Nov 15, 1974 z Vandenberg Space Force Base

Loading…

Następne Przeloty (najbliższe 24 godziny)

TLE

ŚwieżeSource: Space-Track

Epoka: Sep 14, 2026, 09:17 UTC

1 08143U 74089M   26257.38695887 -.00000015  00000-0  16120-3 0  9990
2 08143 101.7804 247.3504 0194407  30.9572 330.2798 12.61391223383977

Śledź THORAD DELTA 1 DEB w czasie rzeczywistym z AllMySat

Download on the App Store